Location: La Brionne
(46.1728°N, 1.7849°E)
Time: 17:44:36
(UTC+00:00)

Cosmos 1544 Rocket - Pass Details

Date: 29 October 2021
Orbit: 603 x 632 km, 82.5° (Epoch: 27 November)

Event Time Altitude Azimuth Distance (km) Brightness Sun altitude
Rises 02:55:31 0° 9° (N) 2,902 7.3 -37.1°
Reaches altitude 10° 02:59:11 10° 41° (NE) 1,982 6.7 -36.5°
Maximum altitude 03:00:55 12° 64° (ENE) 1,841 6.7 -36.3°
Drops below altitude 10° 03:02:38 10° 88° (E) 1,970 6.8 -36.0°
Sets 03:06:14 0° 119° (ESE) 2,861 7.5 -35.4°
